User: anonymous   Login
Location: Boiro
(42.6475°N, 8.8834°W)
Time: 01:24:38
(UTC+01:00)
Language:

Hubble Space Telescope - Orbit

View from above orbital plane
View from above orbital plane
View from above satellite
View from above satellite

Ground track
Ground track

The orbit data is extracted from the following two-line orbital elements,

1 20580U 90037B   21331.60534924  .00000891  00000-0  42734-4 0  9999
2 20580  28.4707  65.4038 0002770  25.2159 102.5928 15.09853624535677
Epoch (UTC): 27 November 2021 14:31:42
Eccentricity: 0.0002770
inclination: 28.4707°
perigee height: 535 km
apogee height: 538 km
right ascension of ascending node: 65.4038°
argument of perigee: 25.2159°
revolutions per day: 15.09853624
mean anomaly at epoch: 102.5928°
orbit number at epoch: 53567

The dashed part of the orbit path shows where the satellite is in the earth's shadow,  

DLR